Regional Weather Roundup
Issued by NWS

Home | Current Version | Previous Version | Graphics & Text | Print | Product List | Glossary On
Versions: 1 2 3 4 5 6 7 8 9 10 11 12 13 14 15 16 17 18 19 20 21 22 23 24 25 26 27 28 29 30 31 32 33 34 35 36 37 38 39 40 41 42 43 44 45 46 47 48 49 50
000
ASUS43 KDMX 202206
RWRIA

WEATHER ROUNDUP FOR IOWA
NATIONAL WEATHER SERVICE DES MOINES IA
400 PM CST MON NOV 20 2017

NOTE: "FAIR" INDICATES FEW OR NO CLOUDS BELOW 12,000 FEET WITH NO
SIGNIFICANT WEATHER AND/OR OBSTRUCTIONS TO VISIBILITY.

* - THESE STATIONS ARE NOT NWS STATIONS...THUS NOT UNDER NWS
QUALITY CONTROL.  THEY ALSO DO NOT REPORT WEATHER SUCH
AS PRECIPITATION OR FOG.

IAZ001>003-012>014-020>022-031>034-043>046-202300-
   NORTHWEST IOWA

CITY           SKY/WX    TMP DP  RH WIND       PRES   REMARKS
CARROLL *      CLOUDY    55  28  35 SW17G25   29.56S
CHEROKEE *     CLOUDY    50  29  44 SW8       29.57R
DENISON *      CLOUDY    54  27  35 SW16      29.59R
LE MARS *      PTCLDY    54  28  37 SW6       29.57R
ORANGE CITY *  PTCLDY    52  30  43 SW8       29.56R
SHELDON *      CLOUDY    50  28  43 SW12      29.54R
SIOUX CITY     PTCLDY    53  29  39 SW5       29.57R
SPENCER        CLOUDY    49  28  44 SW12      29.55R
STORM LAKE *   CLOUDY    50  28  43 SW13      29.55R
$$

IAZ055>058-069>071-079>083-090>094-202300-
   SOUTHWEST IOWA

CITY           SKY/WX    TMP DP  RH WIND       PRES   REMARKS
ATLANTIC *     CLOUDY    55  30  38 SW15      29.61R
AUDUBON *      CLOUDY    55  27  33 S10G17    29.60R
CLARINDA *     CLOUDY    59  28  31 SW20        N/A
COUNCIL BLFS * CLOUDY    55  28  35 SW13      29.60R
CRESTON *      CLOUDY    55  30  38 SW16G23   29.65S
HARLAN  *      CLOUDY    55  28  35 SW13G18   29.62S
LAMONI         CLOUDY    57  29  34 SW20      29.67R
RED OAK *      CLOUDY    57  28  33 SW18      29.62S
SHENANDOAH *   CLOUDY    59  28  31 SW16      29.64R
$$

IAZ047>049-059>061-072>074-084-202300-
   CENTRAL IOWA

CITY           SKY/WX    TMP DP  RH WIND       PRES   REMARKS
AMES           CLOUDY    56  31  38 SW18G31   29.59R
ANKENY *       CLOUDY    59  27  29 SW16G28   29.62R
BOONE *        CLOUDY    55  28  35 SW17G24   29.57R
CHARITON *     MOCLDY    57  28  33 SW17G26   29.65R
DES MOINES     CLOUDY    59  26  28 SW16G26   29.62R
GRINNELL*      CLOUDY    57  27  31 SW20G28   29.63R
KNOXVILLE *    CLOUDY    59  25  27 SW17G29   29.63R
MARSHALLTOWN   CLOUDY    56  30  37 S13G23    29.59R
NEWTON *       CLOUDY    57  27  30 SW23G30   29.61S
PELLA *        CLOUDY    59  24  26 SW13G24   29.65R
PERRY *          N/A     54  25  32 SW17      29.59S
$$

IAZ004>006-015-016-023>025-035-036-202300-
   NORTH CENTRAL IOWA

CITY           SKY/WX    TMP DP  RH WIND       PRES   REMARKS
ALGONA *       CLOUDY    50  32  50 SW9       29.55R
CLARION *      CLOUDY    52  32  46 SW14      29.56R
ESTHERVILLE    PTCLDY    47  30  51 SW12      29.53R
FORT DODGE *   CLOUDY    53  29  39 SW13      29.57R
MASON CITY     CLOUDY    51  29  42 SW13      29.55R
FOREST CITY *    N/A     50  32  50 SW10G16   29.54R
WEBSTER CITY * CLOUDY    54  28  37 SW15G22   29.55R
IOWA FALLS *     N/A     56  29  35 SW20G32   29.58R
$$

IAZ007>011-017>019-026>030-037>042-050>054-066-202300-
   NORTHEAST IOWA

CITY           SKY/WX    TMP DP  RH WIND       PRES   REMARKS
CEDAR RAPIDS   CLOUDY    57  27  31 SW18G32   29.62S
CHARLES CITY * CLOUDY    52  32  46 SW9       29.55R
CLINTON *      CLEAR     54  33  45 S18       29.68F
DECORAH *      CLOUDY    52  32  46 SW9G17    29.54S
DUBUQUE        CLOUDY    54  31  41 S23G30    29.59F
MONTICELLO *   CLOUDY    55  30  38 S16G23    29.60F
OELWEIN *      CLOUDY    54  32  43 SW20G26   29.58R
WATERLOO       CLOUDY    56  28  34 SW16      29.57R
$$

IAZ064-065-067-068-078-202300-
   EAST CENTRAL IOWA

CITY           SKY/WX    TMP DP  RH WIND       PRES   REMARKS
DAVENPORT      CLEAR     56  31  38 S16G23    29.70F
IOWA CITY      CLOUDY    59  29  31 S14G24    29.66F
MT. PLEASANT * CLEAR     56  29  35 S22G30    29.71S
MUSCATINE *    CLEAR     57  32  38 S21G30    29.68F
QUAD CITIES    CLEAR     57  31  37 S17G28    29.69S
$$

IAZ062-063-075>077-085>089-095>099-202300-
   SOUTHEAST IOWA

CITY           SKY/WX    TMP DP  RH WIND       PRES   REMARKS
BURLINGTON     CLEAR     56  33  42 S14G24    29.73S
FAIRFIELD *    CLEAR     57  28  33 S17G28    29.66F
FORT MADISON * CLEAR     57  30  35 S16G23    29.74S
KEOKUK *       CLEAR     59  28  31 SW21G28   29.74S
OSKALOOSA *      N/A     56  30  36 SW21      29.66R
OTTUMWA        CLOUDY    58  28  32 SW20G28   29.65F
WASHINGTON *   CLOUDY    57  30  35 SW22G31   29.66F
$$

ABBREVIATIONS USED IN REMARKS
   TC - TEMPERATURES IN CELSIUS
  WCI - WIND CHILL INDEX
   HX - HEAT INDEX
  VSB - VISIBILITY
$$




USA.gov is the U.S. government's official web portal to all federal, state and local government web resources and services.